User: anonymous   Login
Location: Finnegan
(51.1333°N, 112.0833°W)
Time: 02:20:20
(UTC+00:00)
Language:

Tiangong - Orbit

View from above orbital plane
View from above orbital plane
View from above satellite
View from above satellite

Ground track
Ground track

The orbit data is extracted from the following two-line orbital elements,

1 48274U 21035A   24103.49744506  .00019439  00000-0  19370-3 0  9994
2 48274  41.4671 124.4422 0007950  17.7444 342.3673 15.65171798168819
Epoch (UTC): 12 April 2024 11:56:19
Eccentricity: 0.0007950
inclination: 41.4671°
perigee height: 367 km
apogee height: 378 km
right ascension of ascending node: 124.4422°
argument of perigee: 17.7444°
revolutions per day: 15.65171798
mean anomaly at epoch: 342.3673°
orbit number at epoch: 16881

The dashed part of the orbit path shows where the satellite is in the earth's shadow,  

DLR